Teterboro, NJ

4:23 AM EDT on July 23, 2017 (GMT -0400)
Teterboro

Weather History for KTEB - October, 2013

Change the Weather History Date:

Friday, October 11, 2013

  Actual Average Record
Temperature  
Mean Temperature 66 °F -  
Max Temperature 71 °F 65 °F 79 °F (2010)
Min Temperature 61 °F 45 °F 39 °F (2016)
Cooling Degree Days 1    
Growing Degree Days 16 (Base 50)    
Moisture  
Dew Point 55 °F    
Average Humidity 67    
Maximum Humidity 73    
Minimum Humidity 59    
Precipitation  
Precipitation 0.00 in - - ()
Sea Level Pressure  
Sea Level Pressure 30.05 in    
Wind  
Wind Speed 7 mph (NNE)    
Max Wind Speed 10 mph    
Max Gust Speed 23 mph    
Visibility 10 miles    
Events Rain    
Averages and records for this station are not official NWS values.
T = Trace of Precipitation, MM = Missing Value Source: NWS Daily Summary

Daily Weather History Graph

Daily Weather History Graph

Search for Another Location

Airport or City:

Trip Planner

Search our weather history database for the weather conditions in past years. The results will help you decide how hot, cold, wet, or windy it might be!

Date:

Astronomy

Oct. 11, 2013 Rise Set
Actual Time 7:03 AM EDT 6:21 PM EDT
Civil Twilight 6:35 AM EDT 6:49 PM EDT
Nautical Twilight 6:04 AM EDT 7:20 PM EDT
Astronomical Twilight 5:32 AM EDT 7:52 PM EDT
Moon 1:44 PM EDT (10/11) No Moon Set
Length of Visible Light 12h 13m
Length of Day
11h 18m
Waxing Crescent, 47% of the Moon is Illuminated
Oct 11
Waxing Crescent
Oct 11
First Quarter
Oct 18
Full
Oct 26
Last Quarter
Nov 3
New

Hourly Weather History & Observations

Time (EDT) Temp. Dew Point Humidity Pressure Visibility Wind Dir Wind Speed Gust Speed Precip Events Conditions
12:51 AM 62.1 °F 51.1 °F 67% 30.07 in 10.0 mi NNE 6.9 mph - N/A   Overcast
1:20 AM 62.6 °F 51.8 °F 68% 30.06 in 10.0 mi North 5.8 mph - N/A   Overcast
1:51 AM 62.1 °F 51.1 °F 67% 30.06 in 10.0 mi NNE 5.8 mph - N/A   Overcast
2:51 AM 62.1 °F 51.1 °F 67% 30.04 in 10.0 mi North 6.9 mph - N/A   Overcast
3:51 AM 62.1 °F 52.0 °F 70% 30.03 in 10.0 mi North 6.9 mph - N/A   Overcast
4:51 AM 62.1 °F 52.0 °F 70% 30.04 in 10.0 mi NNE 8.1 mph - N/A   Overcast
5:51 AM 61.0 °F 52.0 °F 72% 30.03 in 10.0 mi NNE 8.1 mph - N/A   Overcast
6:51 AM 62.1 °F 52.0 °F 70% 30.04 in 10.0 mi NNE 4.6 mph - N/A   Overcast
7:51 AM 63.0 °F 53.1 °F 70% 30.05 in 10.0 mi North 8.1 mph - N/A   Overcast
8:51 AM 63.0 °F 54.0 °F 72% 30.05 in 10.0 mi NNE 8.1 mph - N/A   Overcast
9:51 AM 64.9 °F 54.0 °F 68% 30.05 in 10.0 mi NNE 9.2 mph 17.3 mph N/A   Overcast
10:51 AM 66.0 °F 55.0 °F 68% 30.06 in 10.0 mi NE 6.9 mph - N/A   Overcast
11:51 AM 66.9 °F 55.9 °F 68% 30.06 in 7.0 mi NNE 10.4 mph - 0.00 in   Drizzle
12:12 PM 66.2 °F 57.2 °F 73% 30.05 in 2.0 mi NE 8.1 mph - 0.00 in   Light Drizzle
12:51 PM 66.9 °F 57.9 °F 73% 30.04 in 10.0 mi NE 8.1 mph - 0.00 in   Light Drizzle
1:17 PM 68.0 °F 57.2 °F 68% 30.04 in 10.0 mi NE 4.6 mph - 0.00 in   Overcast
1:51 PM 68.0 °F 57.0 °F 68% 30.03 in 10.0 mi ENE 9.2 mph - 0.00 in   Overcast
2:10 PM 68.0 °F 57.2 °F 68% 30.03 in 10.0 mi NE 5.8 mph - N/A   Overcast
2:51 PM 69.1 °F 57.0 °F 65% 30.03 in 10.0 mi NE 6.9 mph - 0.00 in Rain Light Rain
3:36 PM 69.8 °F 55.4 °F 60% 30.02 in 10.0 mi NE 8.1 mph 17.3 mph 0.00 in   Mostly Cloudy
3:51 PM 71.1 °F 55.9 °F 59% 30.02 in 10.0 mi ENE 10.4 mph 23.0 mph 0.00 in   Mostly Cloudy
4:51 PM 70.0 °F 57.0 °F 63% 30.02 in 10.0 mi NNE 6.9 mph - N/A   Mostly Cloudy
5:51 PM 70.0 °F 57.0 °F 63% 30.04 in 10.0 mi NNE 4.6 mph - N/A   Overcast
6:51 PM 70.0 °F 57.9 °F 65% 30.06 in 10.0 mi NE 3.5 mph - N/A   Overcast
7:51 PM 69.1 °F 57.9 °F 68% 30.06 in 10.0 mi Calm Calm - N/A   Overcast
8:51 PM 69.1 °F 57.0 °F 65% 30.06 in 10.0 mi NNE 4.6 mph - N/A   Scattered Clouds
9:51 PM 69.1 °F 57.0 °F 65% 30.09 in 10.0 mi Calm Calm - N/A   Overcast
10:51 PM 68.0 °F 57.0 °F 68% 30.09 in 10.0 mi NE 3.5 mph - N/A   Partly Cloudy
11:51 PM 66.9 °F 55.9 °F 68% 30.08 in 10.0 mi NE 4.6 mph - N/A   Mostly Cloudy